World > North America > United States > South Carolina   Town of Pawleys Island, SC

Hourly Pawleys Island, SC Regional Weather

Feedback E-mail the Weather

Latest News

Pawleys Island, SC Weather Maps

°F °C°F °C
Pawleys Island Weather Map
UTC Time: 5/26/2022, 21:29
Your Time:

Pawleys Island, SC Regional Weather

Expires:202205262200;;618969
ASUS42 KCAE 262110
RWRCAE
REGIONAL WEATHER ROUNDUP
NATIONAL WEATHER SERVICE COLUMBIA SC
500 PM EDT THU MAY 26 2022

NOTE: "FAIR" INDICATES FEW OR NO CLOUDS BELOW 12,000 FEET WITH NO
SIGNIFICANT WEATHER AND/OR OBSTRUCTIONS TO VISIBILITY.

NOT ALL STATIONS ARE QUALITY CONTROLLED BY THE NATIONAL 
WEATHER SERVICE. USE DATA WITH CAUTION...ESPECIALLY 
DEWPOINT OBSERVATIONS.


SCZ001>059-115-116-135>137-GAZ040-063>065-077-262200-
...UPSTATE SOUTH CAROLINA...
  
CITY           SKY/WX    TMP DP  RH WIND       PRES   REMARKS
ANDERSON       TSTM      70  68  93 S22G32    30.03R FOG              
LIBERTY        LGT RAIN  70  69  95 SE7       30.00F                  
SPARTANBURG    CLOUDY    70  68  94 CALM      30.02F                  
CLEMSON        TSTM      70  70 100 SW10G20   30.02S VSB 1/2          
GREENVILLE     LGT RAIN  70  67  90 CALM      30.02F                  
GREENWOOD      TSTM      70  67  90 SW3       30.03F                  
GREER          LGT RAIN  68  65  90 SE10      30.03F FOG              
ROCK HILL      PTSUNNY   80  68  66 SE9       30.03F                  
CHESTER        CLOUDY    75  72  88 SE9G18    30.03F                  
LAURENS        CLOUDY    72  70  94 W3        30.03S THUNDER          


...CENTRAL SOUTH CAROLINA...
  
CITY           SKY/WX    TMP DP  RH WIND       PRES   REMARKS
COLUMBIA APT   PTSUNNY   85  69  58 S10       30.00F                  
COLUMBIA OWENS PTSUNNY   86  72  62 VRB7      30.02F                  
MCENTIRE ANGB  PTSUNNY   85  71  62 SE9       30.01F                  
ORANGEBURG     PTSUNNY   86  68  54 S15       30.03F                  
SUMTER SHAW    MOSUNNY   85  68  55 SE12G21   30.02F                  
NEWBERRY       CLOUDY    82  64  54 S7        30.03F                  
AIKEN          FAIR      83  66  56 S13       30.02F                  
BARNWELL       FAIR      86  64  48 S13       30.01F                  
MANNING        CLOUDY    82  68  61 S13G21    30.05S                  
CAMDEN         FAIR      82  73  74 VRB5G12   30.04F                  
LANCASTER      PTSUNNY   81  70  69 SE9G15    30.04F                  
WINNSBORO      PTSUNNY   79  70  73 SE9       30.03F                  


...EASTERN AND COASTAL SOUTH CAROLINA...
  
CITY           SKY/WX    TMP DP  RH WIND       PRES   REMARKS
MYRTLE BEACH   PTSUNNY   77  72  84 E10       30.12F                  
N MYRTLE BCH   CLOUDY    76  70  82 E12       30.12F                  
CONWAY         PTSUNNY   79  70  73 SE10G16   30.10F                  
MARION         FAIR      82  59  44 S13       30.08F                  
HARTSVILLE     PTSUNNY   84  68  58 SE13      30.05F                  
FLORENCE       PTSUNNY   85  68  56 SE17G23   30.06F                  
DARLINGTON     MOSUNNY   84  69  60 SE14      30.05F                  
CHARLESTON APT LGT RAIN  78  72  81 SW13      30.08S                  
MOUNT PLEASANT FAIR      81  75  83 SE8G14    30.08S                  
WALTERBORO     PTSUNNY   82  72  69 SE12G17   30.06F                  
BEAUFORT       MOSUNNY   85  68  56 S15G26    30.05F                  
HILTON HEAD    MOSUNNY   82  72  69 S9G17     30.07F                  


...EASTERN GEORGIA...
  
CITY           SKY/WX    TMP DP  RH WIND       PRES   REMARKS
AUGUSTA BUSH F CLOUDY    83  68  60 S12       29.98F                  
AUGUSTA DANIEL CLOUDY    85  66  53 S8        30.01F                  
THOMSON        TSTM      69  67  95 S9G17     30.04R FOG              
WASHINGTON     RAIN      68  66  93 S9G26     30.02F FOG              
CLAXTON        FAIR      87  69  55 S8        30.00F                  
SYLVANIA       PTSUNNY   86  66  51 S13       30.02F                  
STATESBORO     PTSUNNY   84  66  53 SE9       30.00F                  
SAVANNAH       PTSUNNY   86  65  49 SE18G25   30.03F                  


...SOUTHERN NORTH CAROLINA...
  
CITY           SKY/WX    TMP DP  RH WIND       PRES   REMARKS
CHARLOTTE      PTSUNNY   82  68  62 S18G24    30.03F                  
MONROE         PTSUNNY   79  68  69 VRB5      30.04F                  
WADESBORO      MOSUNNY   84  66  55 SE12G20   30.05F                  
ROCKINGHAM     MOSUNNY   83  67  57 SE10      30.05F                  
RUTHERFORDTON  TSTM      70  70 100 E5        30.06S VSB 1/2          
ASHEVILLE      LGT RAIN  66  64  93 VRB6      30.05F FOG              

$$
  

SKY/WX - Weather  TMP - Temperature  DP - Dew Point  RH - Humidity
WIND - Wind Direction/Speed PRES - Barometric Pressure VSB - Visibility
WCI - Wind Chill Index E13G22 Wind - East Wind 13 mph/Gusts of 22 mph

Trending Headlines

Pawleys Island Radar Loop



Pawleys Island Quick Facts


National Two Day Weather Forecast


E-mail the Pawleys Island Weather Forecast

Voice your opinion or tell us about page issues...